HBKEY EDDN-LKPR

Flight info

Callsign HBKEY
Flight time 0h 53m
Altitude 7000
Route RODIS1G RODIS DCT RODIS Z410 AGNAV DCT APRAQ
Aircraft DA42/L-SBDGRY/S

Departure

Time 2026-05-06 17:49
Airport Nuremberg Airport (EDDN)

Arrival

Time 2026-05-06 18:43
Airport Václav Havel Airport Prague (LKPR)
Time Latitude Longitude Altitude Speed Heading
2026-05-06 17:32 49.49520 11.07317 1022 ft 0 kts
2026-05-06 17:44 49.49521 11.07301 1021 ft 8 kts 245°
2026-05-06 17:45 49.49538 11.07198 1020 ft 14 kts 355°
2026-05-06 17:45 49.49636 11.07243 1021 ft 14 kts 84°
2026-05-06 17:45 49.49618 11.07442 1022 ft 24 kts 100°
2026-05-06 17:45 49.49596 11.07671 1024 ft 19 kts 97°
2026-05-06 17:46 49.49568 11.07955 1025 ft 22 kts 99°
2026-05-06 17:46 49.49546 11.08173 1024 ft 20 kts 97°
2026-05-06 17:46 49.49537 11.08329 1027 ft 20 kts 62°
2026-05-06 17:46 49.49636 11.08427 1025 ft 9 kts 55°
2026-05-06 17:47 49.49640 11.08437 1025 ft 3 kts 54°
2026-05-06 17:47 49.49692 11.08538 1025 ft 18 kts 45°
2026-05-06 17:47 49.49798 11.08534 1023 ft 10 kts 285°
2026-05-06 17:47 49.49799 11.08529 1023 ft 0 kts 282°
2026-05-06 17:48 49.49799 11.08528 1023 ft 0 kts 282°
2026-05-06 17:49 49.49823 11.08290 1024 ft 55 kts 278°
2026-05-06 17:49 49.49901 11.07466 1080 ft 93 kts 277°
2026-05-06 17:49 49.49992 11.06430 1335 ft 106 kts 277°
2026-05-06 17:49 49.50096 11.05306 1712 ft 106 kts 278°
2026-05-06 17:50 49.50209 11.04194 2093 ft 106 kts 278°
2026-05-06 17:50 49.50324 11.03073 2462 ft 106 kts 278°
2026-05-06 17:50 49.50438 11.01946 2837 ft 107 kts 278°
2026-05-06 17:50 49.50551 11.00812 3217 ft 108 kts 278°
2026-05-06 17:51 49.50664 10.99670 3594 ft 108 kts 278°
2026-05-06 17:51 49.50777 10.98521 3966 ft 109 kts 278°
2026-05-06 17:51 49.50890 10.97367 4344 ft 109 kts 278°
2026-05-06 17:51 49.51001 10.96222 4708 ft 110 kts 278°
2026-05-06 17:52 49.51116 10.95052 5083 ft 111 kts 278°
2026-05-06 17:52 49.51243 10.93882 5453 ft 111 kts 287°
2026-05-06 17:52 49.51683 10.92918 5822 ft 113 kts 324°
2026-05-06 17:52 49.52442 10.92625 6183 ft 117 kts
2026-05-06 17:53 49.53156 10.93196 6547 ft 120 kts 48°
2026-05-06 17:53 49.53434 10.94384 6917 ft 121 kts 92°
2026-05-06 17:53 49.53372 10.95693 7237 ft 127 kts 95°
2026-05-06 17:53 49.53290 10.97088 7488 ft 135 kts 96°
2026-05-06 17:54 49.53206 10.98523 7835 ft 135 kts 95°
2026-05-06 17:54 49.53123 10.99961 8177 ft 135 kts 95°
2026-05-06 17:54 49.53042 11.01407 8520 ft 136 kts 95°
2026-05-06 17:54 49.52960 11.02859 8858 ft 137 kts 95°
2026-05-06 17:55 49.52878 11.04320 9199 ft 137 kts 95°
2026-05-06 17:55 49.52795 11.05789 9539 ft 138 kts 95°
2026-05-06 17:55 49.52712 11.07266 9875 ft 139 kts 95°
2026-05-06 17:55 49.52629 11.08749 10211 ft 140 kts 95°
2026-05-06 17:56 49.52544 11.10243 10546 ft 140 kts 95°
2026-05-06 17:56 49.52460 11.11721 10876 ft 141 kts 95°
2026-05-06 17:56 49.52375 11.13229 11213 ft 142 kts 95°
2026-05-06 17:56 49.52288 11.14745 11547 ft 142 kts 95°
2026-05-06 17:57 49.52201 11.16268 11880 ft 143 kts 95°
2026-05-06 17:57 49.52114 11.17798 12213 ft 144 kts 95°
2026-05-06 17:57 49.52026 11.19338 12545 ft 145 kts 95°
2026-05-06 17:57 49.51937 11.20885 12875 ft 145 kts 95°
2026-05-06 17:58 49.51847 11.22440 13217 ft 146 kts 95°
2026-05-06 17:58 49.51758 11.23982 13527 ft 147 kts 95°
2026-05-06 17:58 49.51668 11.25552 13847 ft 148 kts 95°
2026-05-06 17:58 49.51576 11.27130 14161 ft 148 kts 95°
2026-05-06 17:59 49.51484 11.28713 14465 ft 149 kts 95°
2026-05-06 17:59 49.51391 11.30308 14767 ft 150 kts 95°
2026-05-06 17:59 49.51297 11.31910 15059 ft 151 kts 95°
2026-05-06 17:59 49.51203 11.33518 15345 ft 151 kts 95°
2026-05-06 18:00 49.51109 11.35134 15627 ft 152 kts 95°
2026-05-06 18:00 49.51013 11.36757 15895 ft 153 kts 95°
2026-05-06 18:00 49.50913 11.38434 15997 ft 165 kts 96°
2026-05-06 18:00 49.50805 11.40241 16003 ft 178 kts 95°
2026-05-06 18:01 49.50689 11.42182 16007 ft 186 kts 95°
2026-05-06 18:01 49.50570 11.44198 16010 ft 192 kts 95°
2026-05-06 18:01 49.50448 11.46260 16011 ft 195 kts 95°
2026-05-06 18:01 49.50324 11.48352 16009 ft 198 kts 95°
2026-05-06 18:02 49.50199 11.50439 16010 ft 199 kts 95°
2026-05-06 18:02 49.50069 11.52588 16011 ft 200 kts 95°
2026-05-06 18:02 49.49941 11.54718 16011 ft 200 kts 95°
2026-05-06 18:02 49.49812 11.56854 16012 ft 201 kts 95°
2026-05-06 18:03 49.49681 11.58992 16011 ft 201 kts 95°
2026-05-06 18:03 49.49553 11.61104 16011 ft 201 kts 95°
2026-05-06 18:03 49.49422 11.63244 16011 ft 201 kts 95°
2026-05-06 18:03 49.49291 11.65384 16011 ft 201 kts 95°
2026-05-06 18:04 49.49159 11.67526 16011 ft 201 kts 95°
2026-05-06 18:04 49.49028 11.69666 16011 ft 201 kts 95°
2026-05-06 18:04 49.48895 11.71807 16011 ft 201 kts 95°
2026-05-06 18:04 49.48762 11.73948 16011 ft 201 kts 95°
2026-05-06 18:05 49.48629 11.76088 16011 ft 201 kts 95°
2026-05-06 18:05 49.48495 11.78230 16011 ft 201 kts 96°
2026-05-06 18:05 49.48361 11.80369 16011 ft 201 kts 96°
2026-05-06 18:05 49.48228 11.82481 16011 ft 201 kts 96°
2026-05-06 18:06 49.48093 11.84620 16011 ft 201 kts 96°
2026-05-06 18:06 49.47958 11.86759 16011 ft 201 kts 96°
2026-05-06 18:06 49.47822 11.88902 16011 ft 201 kts 96°
2026-05-06 18:06 49.47686 11.91043 16011 ft 201 kts 96°
2026-05-06 18:07 49.47550 11.93186 16011 ft 201 kts 96°
2026-05-06 18:07 49.47501 11.95329 16007 ft 201 kts 83°
2026-05-06 18:07 49.47785 11.97436 16008 ft 201 kts 77°
2026-05-06 18:07 49.48087 11.99536 16009 ft 201 kts 77°
2026-05-06 18:08 49.48386 12.01609 16009 ft 201 kts 77°
2026-05-06 18:08 49.48688 12.03711 16008 ft 201 kts 77°
2026-05-06 18:08 49.48988 12.05811 16008 ft 201 kts 77°
2026-05-06 18:08 49.49288 12.07910 16008 ft 201 kts 77°
2026-05-06 18:09 49.49588 12.10010 16008 ft 201 kts 77°
2026-05-06 18:09 49.49888 12.12112 16009 ft 201 kts 77°
2026-05-06 18:09 49.50186 12.14213 16008 ft 201 kts 77°
2026-05-06 18:09 49.50484 12.16315 16009 ft 201 kts 77°
2026-05-06 18:10 49.50782 12.18418 16008 ft 201 kts 77°
2026-05-06 18:10 49.51081 12.20523 16008 ft 201 kts 77°
2026-05-06 18:10 49.51373 12.22596 16009 ft 201 kts 77°
2026-05-06 18:10 49.51671 12.24700 16008 ft 201 kts 77°
2026-05-06 18:11 49.51968 12.26804 16009 ft 201 kts 77°
2026-05-06 18:11 49.52264 12.28908 16009 ft 201 kts 77°
2026-05-06 18:11 49.52559 12.31013 16009 ft 201 kts 77°
2026-05-06 18:11 49.52855 12.33120 16009 ft 201 kts 77°
2026-05-06 18:12 49.53151 12.35230 16009 ft 202 kts 77°
2026-05-06 18:12 49.53447 12.37338 16008 ft 201 kts 77°
2026-05-06 18:12 49.53741 12.39447 16008 ft 201 kts 77°
2026-05-06 18:12 49.54035 12.41552 16008 ft 201 kts 77°
2026-05-06 18:13 49.54325 12.43631 16008 ft 201 kts 77°
2026-05-06 18:13 49.54621 12.45763 16009 ft 201 kts 77°
2026-05-06 18:13 49.54910 12.47843 16008 ft 201 kts 77°
2026-05-06 18:13 49.55203 12.49950 16008 ft 201 kts 77°
2026-05-06 18:14 49.55495 12.52056 16008 ft 201 kts 78°
2026-05-06 18:14 49.55787 12.54163 16009 ft 201 kts 78°
2026-05-06 18:14 49.56073 12.56239 16009 ft 201 kts 78°
2026-05-06 18:14 49.56373 12.58355 15996 ft 205 kts 81°
2026-05-06 18:15 49.56671 12.60559 15866 ft 214 kts 82°
2026-05-06 18:15 49.56872 12.62848 15751 ft 218 kts 89°
2026-05-06 18:15 49.57010 12.65165 15744 ft 216 kts 88°
2026-05-06 18:15 49.57147 12.67430 15734 ft 215 kts 89°
2026-05-06 18:16 49.57285 12.69722 15733 ft 215 kts 89°
2026-05-06 18:16 49.57419 12.72005 15734 ft 214 kts 89°
2026-05-06 18:16 49.57554 12.74282 15733 ft 214 kts 89°
2026-05-06 18:16 49.57688 12.76560 15733 ft 213 kts 89°
2026-05-06 18:17 49.57821 12.78838 15733 ft 213 kts 89°
2026-05-06 18:17 49.57954 12.81113 15735 ft 213 kts 89°
2026-05-06 18:17 49.58086 12.83391 15734 ft 214 kts 89°
2026-05-06 18:17 49.58217 12.85676 15734 ft 214 kts 89°
2026-05-06 18:18 49.58348 12.87956 15736 ft 214 kts 89°
2026-05-06 18:18 49.58478 12.90202 15737 ft 213 kts 89°
2026-05-06 18:18 49.58609 12.92481 15737 ft 213 kts 89°
2026-05-06 18:18 49.58739 12.94760 15737 ft 214 kts 89°
2026-05-06 18:19 49.58869 12.97042 15735 ft 214 kts 89°
2026-05-06 18:19 49.58998 12.99320 15735 ft 213 kts 89°
2026-05-06 18:19 49.59126 13.01600 15736 ft 214 kts 89°
2026-05-06 18:19 49.59255 13.03883 15733 ft 214 kts 89°
2026-05-06 18:20 49.59384 13.06161 15736 ft 214 kts 89°
2026-05-06 18:20 49.59512 13.08441 15736 ft 213 kts 89°
2026-05-06 18:20 49.59933 13.10634 15731 ft 219 kts 60°
2026-05-06 18:20 49.61020 13.12205 15739 ft 219 kts 26°
2026-05-06 18:21 49.62465 13.12774 15740 ft 214 kts
2026-05-06 18:21 49.63927 13.13288 15740 ft 217 kts 13°
2026-05-06 18:21 49.65372 13.13953 15739 ft 217 kts 13°
2026-05-06 18:21 49.66825 13.14558 15739 ft 216 kts 11°
2026-05-06 18:22 49.68283 13.15126 15743 ft 216 kts 11°
2026-05-06 18:22 49.69741 13.15696 15743 ft 216 kts 11°
2026-05-06 18:22 49.71215 13.16279 15557 ft 221 kts 11°
2026-05-06 18:22 49.72711 13.16874 15358 ft 223 kts 11°
2026-05-06 18:23 49.74222 13.17473 15157 ft 224 kts 11°
2026-05-06 18:23 49.75714 13.18065 14962 ft 225 kts 11°
2026-05-06 18:23 49.77228 13.18665 14771 ft 224 kts 11°
2026-05-06 18:23 49.78714 13.19257 14694 ft 219 kts 11°
2026-05-06 18:24 49.80203 13.19849 14449 ft 223 kts 11°
2026-05-06 18:24 49.81714 13.20449 14203 ft 225 kts 11°
2026-05-06 18:24 49.83232 13.21054 13970 ft 225 kts 11°
2026-05-06 18:24 49.84752 13.21658 13731 ft 226 kts 11°
2026-05-06 18:25 49.86272 13.22263 13487 ft 225 kts 11°
2026-05-06 18:25 49.87760 13.22922 13220 ft 226 kts 19°
2026-05-06 18:25 49.89115 13.24223 12950 ft 228 kts 40°
2026-05-06 18:25 49.90099 13.26095 12685 ft 228 kts 61°
2026-05-06 18:26 49.90644 13.28379 12411 ft 225 kts 81°
2026-05-06 18:26 49.90703 13.30784 11991 ft 223 kts 97°
2026-05-06 18:26 49.90617 13.33183 11560 ft 223 kts 97°
2026-05-06 18:26 49.90528 13.35575 11134 ft 222 kts 97°
2026-05-06 18:27 49.90440 13.37958 10712 ft 221 kts 97°
2026-05-06 18:27 49.90354 13.40330 10297 ft 220 kts 96°
2026-05-06 18:27 49.90269 13.42688 9887 ft 219 kts 96°
2026-05-06 18:27 49.90185 13.44990 9752 ft 205 kts 97°
2026-05-06 18:28 49.90110 13.47148 9753 ft 199 kts 97°
2026-05-06 18:28 49.90029 13.49279 9752 ft 197 kts 97°
2026-05-06 18:28 49.89949 13.51398 9752 ft 197 kts 96°
2026-05-06 18:28 49.90254 13.53462 9744 ft 201 kts 61°
2026-05-06 18:29 49.91211 13.55014 9744 ft 200 kts 37°
2026-05-06 18:29 49.92304 13.56305 9739 ft 200 kts 35°
2026-05-06 18:29 49.93418 13.57594 9740 ft 200 kts 35°
2026-05-06 18:29 49.94534 13.58878 9739 ft 200 kts 35°
2026-05-06 18:30 49.95652 13.60158 9740 ft 200 kts 34°
2026-05-06 18:30 49.96771 13.61439 9741 ft 200 kts 34°
2026-05-06 18:30 49.97890 13.62717 9740 ft 200 kts 34°
2026-05-06 18:30 49.99009 13.63997 9740 ft 200 kts 34°
2026-05-06 18:31 50.00125 13.65274 9741 ft 198 kts 34°
2026-05-06 18:31 50.01237 13.66539 9745 ft 199 kts 34°
2026-05-06 18:31 50.02351 13.67814 9744 ft 199 kts 34°
2026-05-06 18:31 50.03471 13.69095 9745 ft 201 kts 34°
2026-05-06 18:32 50.04588 13.70372 9745 ft 203 kts 34°
2026-05-06 18:32 50.05746 13.71695 9602 ft 210 kts 35°
2026-05-06 18:32 50.06939 13.73051 9456 ft 214 kts 35°
2026-05-06 18:32 50.08153 13.74404 9293 ft 215 kts 35°
2026-05-06 18:33 50.09374 13.75760 9088 ft 217 kts 35°
2026-05-06 18:33 50.10612 13.77132 8830 ft 219 kts 35°
2026-05-06 18:33 50.11858 13.78507 8566 ft 220 kts 35°
2026-05-06 18:33 50.13103 13.79879 8313 ft 219 kts 35°
2026-05-06 18:34 50.14348 13.81248 8061 ft 218 kts 35°
2026-05-06 18:34 50.15575 13.82594 7808 ft 214 kts 35°
2026-05-06 18:34 50.16786 13.83920 7555 ft 211 kts 35°
2026-05-06 18:34 50.17985 13.85230 7306 ft 209 kts 35°
2026-05-06 18:35 50.19174 13.86526 7056 ft 208 kts 34°
2026-05-06 18:35 50.20356 13.87814 6813 ft 207 kts 35°
2026-05-06 18:35 50.21500 13.89059 6745 ft 198 kts 34°
2026-05-06 18:35 50.22618 13.90272 6627 ft 196 kts 34°
2026-05-06 18:36 50.23645 13.91678 6446 ft 198 kts 57°
2026-05-06 18:36 50.24051 13.93686 6275 ft 195 kts 89°
2026-05-06 18:36 50.24055 13.95788 6106 ft 193 kts 94°
2026-05-06 18:36 50.23951 13.97866 5921 ft 190 kts 109°
2026-05-06 18:37 50.23307 13.99622 5739 ft 186 kts 130°
2026-05-06 18:37 50.22500 14.01195 5565 ft 185 kts 133°
2026-05-06 18:37 50.21548 14.02518 5382 ft 184 kts 140°
2026-05-06 18:37 50.20771 14.04113 5152 ft 188 kts 120°
2026-05-06 18:38 50.20129 14.05853 4800 ft 188 kts 129°
2026-05-06 18:38 50.19274 14.07433 4230 ft 191 kts 133°
2026-05-06 18:38 50.18405 14.08915 3841 ft 177 kts 134°
2026-05-06 18:38 50.17673 14.10294 3822 ft 150 kts 130°
2026-05-06 18:39 50.17036 14.11583 3571 ft 150 kts 128°
2026-05-06 18:39 50.16417 14.12880 3255 ft 148 kts 127°
2026-05-06 18:39 50.15823 14.14111 2881 ft 137 kts 126°
2026-05-06 18:40 50.14714 14.16396 2309 ft 129 kts 124°
2026-05-06 18:40 50.14193 14.17487 2333 ft 120 kts 125°
2026-05-06 18:40 50.13691 14.18553 2185 ft 127 kts 125°
2026-05-06 18:40 50.13151 14.19667 2006 ft 130 kts 126°
2026-05-06 18:41 50.12610 14.20791 1824 ft 129 kts 125°
2026-05-06 18:41 50.12071 14.21912 1646 ft 129 kts 124°
2026-05-06 18:41 50.11592 14.22896 1487 ft 98 kts 124°
2026-05-06 18:41 50.11215 14.23677 1365 ft 86 kts 123°
2026-05-06 18:42 50.10862 14.24412 1258 ft 84 kts 123°
2026-05-06 18:42 50.10523 14.25120 1169 ft 70 kts 126°
2026-05-06 18:42 50.10282 14.25617 1178 ft 53 kts 128°
2026-05-06 18:42 50.10050 14.26093 1182 ft 58 kts 127°
2026-05-06 18:43 50.09872 14.26579 1200 ft 35 kts 79°
2026-05-06 18:43 50.09895 14.26826 1204 ft 11 kts 81°
2026-05-06 18:43 50.09899 14.26868 1205 ft 0 kts 82°
2026-05-06 18:45 50.09908 14.26975 1207 ft 23 kts 82°
2026-05-06 18:45 50.09940 14.27322 1201 ft 41 kts 80°
2026-05-06 18:46 50.09975 14.27725 1190 ft 33 kts 83°
2026-05-06 18:46 50.10001 14.27985 1186 ft 8 kts 81°
2026-05-06 18:46 50.10002 14.28018 1187 ft 11 kts 90°
2026-05-06 18:46 50.09976 14.28202 1191 ft 23 kts 119°
2026-05-06 18:47 50.09914 14.28372 1197 ft 6 kts 118°
2026-05-06 18:47 50.09914 14.28374 1197 ft 0 kts 118°
2026-05-06 18:47 50.09912 14.28380 1197 ft 0 kts 116°
2026-05-06 18:48 50.09899 14.28423 1198 ft 0 kts 110°
2026-05-06 18:48 50.09882 14.28491 1200 ft 4 kts 86°
2026-05-06 18:48 50.09883 14.28526 1200 ft 3 kts 109°
2026-05-06 18:48 50.09851 14.28539 1202 ft 7 kts 167°
2026-05-06 18:49 50.09845 14.28541 1202 ft 0 kts 166°